Villas, NJ

10:28 PM EDT on August 28, 2016 (GMT -0400)
Cape May County

Weather History for KWWD - March, 2013

Change the Weather History Date:

Friday, March 15, 2013

  Actual Average Record
Temperature  
Mean Temperature 42 °F -  
Max Temperature 51 °F 47 °F 71 °F (2007)
Min Temperature 33 °F 34 °F 26 °F (2003)
Degree Days  
Heating Degree Days 23    
Moisture  
Dew Point 22 °F    
Average Humidity 46    
Maximum Humidity 61    
Minimum Humidity 30    
Precipitation  
Precipitation 0.00 in - - ()
Sea Level Pressure  
Sea Level Pressure 29.95 in    
Wind  
Wind Speed 12 mph (WSW)    
Max Wind Speed 20 mph    
Max Gust Speed 25 mph    
Visibility 10 miles    
Events      
Averages and records for this station are not official NWS values.
T = Trace of Precipitation, MM = Missing Value Source: NWS Daily Summary

Daily Weather History Graph

Daily Weather History Graph

Search for Another Location

Airport or City:

Trip Planner

Search our weather history database for the weather conditions in past years. The results will help you decide how hot, cold, wet, or windy it might be!

Date:

Astronomy

Mar. 15, 2013 Rise Set
Actual Time 7:10 AM EDT 7:06 PM EDT
Civil Twilight 6:44 AM EDT 7:33 PM EDT
Nautical Twilight 6:13 AM EDT 8:04 PM EDT
Astronomical Twilight 5:41 AM EDT 8:35 PM EDT
Moon 9:01 AM EDT (3/15) 11:16 PM EDT (3/15)
Length of Visible Light 12h 49m
Length of Day
11h 56m
Waxing Crescent, 15% of the Moon is Illuminated
Mar 15
Waxing Crescent
Mar 19
First Quarter
Mar 27
Full
Apr 3
Last Quarter
Apr 10
New

Hourly Weather History & Observations

Time (EDT) Temp. Windchill Dew Point Humidity Pressure Visibility Wind Dir Wind Speed Gust Speed Precip Events Conditions
12:15 AM 37.4 °F 28.5 °F 15.8 °F 41% 30.05 in 10.0 mi WNW 15.0 mph 21.9 mph N/A   Clear
12:35 AM 37.4 °F 29.8 °F 15.8 °F 41% 30.05 in 10.0 mi NW 11.5 mph 25.3 mph N/A   Clear
12:55 AM 37.4 °F 29.8 °F 15.8 °F 41% 30.05 in 10.0 mi WNW 11.5 mph 20.7 mph N/A   Clear
1:15 AM 37.4 °F 28.9 °F 15.8 °F 41% 30.05 in 10.0 mi WNW 13.8 mph 20.7 mph N/A   Clear
1:35 AM 37.4 °F 28.9 °F 14.0 °F 38% 30.05 in 10.0 mi WNW 13.8 mph 21.9 mph N/A   Clear
2:15 AM 37.4 °F 30.3 °F 15.8 °F 41% 30.05 in 10.0 mi NW 10.4 mph 21.9 mph N/A   Clear
2:35 AM 35.6 °F 27.1 °F 15.8 °F 44% 30.05 in 10.0 mi WNW 12.7 mph 19.6 mph N/A   Clear
2:55 AM 35.6 °F 26.6 °F 14.0 °F 41% 30.05 in 10.0 mi NW 13.8 mph 24.2 mph N/A   Clear
3:15 AM 35.6 °F 26.2 °F 14.0 °F 41% 30.06 in 10.0 mi NW 15.0 mph 23.0 mph N/A   Clear
3:35 AM 35.6 °F 26.6 °F 14.0 °F 41% 30.05 in 10.0 mi WNW 13.8 mph 23.0 mph N/A   Clear
3:55 AM 35.6 °F 26.6 °F 12.2 °F 38% 30.05 in 10.0 mi NW 13.8 mph 21.9 mph N/A   Clear
4:15 AM 35.6 °F 27.5 °F 14.0 °F 41% 30.05 in 10.0 mi NW 11.5 mph 17.3 mph N/A   Clear
4:35 AM 35.6 °F 27.5 °F 14.0 °F 41% 30.05 in 10.0 mi NW 11.5 mph 21.9 mph N/A   Clear
4:55 AM 35.6 °F 29.2 °F 15.8 °F 44% 30.05 in 10.0 mi NW 8.1 mph - N/A   Clear
5:15 AM 35.6 °F 28.6 °F 14.0 °F 41% 30.06 in 10.0 mi NW 9.2 mph 20.7 mph N/A   Clear
5:35 AM 33.8 °F 27.7 °F 12.2 °F 41% 30.06 in 10.0 mi WNW 6.9 mph - N/A   Clear
5:55 AM 33.8 °F 27.0 °F 14.0 °F 44% 30.06 in 10.0 mi NW 8.1 mph - N/A   Clear
6:15 AM 33.8 °F 28.6 °F 15.8 °F 48% 30.07 in 10.0 mi NW 5.8 mph - N/A   Clear
6:35 AM 33.8 °F 28.6 °F 15.8 °F 48% 30.07 in - NW 5.8 mph - N/A   Clear
6:55 AM 33.8 °F 30.8 °F 15.8 °F 48% 30.07 in - WNW 3.5 mph - N/A   Clear
7:15 AM 33.8 °F 29.6 °F 15.8 °F 48% 30.07 in - WNW 4.6 mph - N/A   Clear
7:35 AM 33.8 °F 29.6 °F 14.0 °F 44% 30.07 in - WNW 4.6 mph - N/A   Clear
7:55 AM 35.6 °F 32.8 °F 15.8 °F 44% 30.08 in - WNW 3.5 mph - N/A   Clear
8:15 AM 35.6 °F 30.7 °F 17.6 °F 48% 30.08 in - West 5.8 mph - N/A   Clear
8:35 AM 35.6 °F 29.9 °F 19.4 °F 52% 30.08 in - West 6.9 mph - N/A   Clear
8:55 AM 37.4 °F 32.1 °F 19.4 °F 48% 30.08 in - West 6.9 mph - N/A   Clear
9:15 AM 37.4 °F 30.8 °F 19.4 °F 48% 30.07 in - West 9.2 mph - N/A   Clear
9:35 AM 37.4 °F 29.8 °F 21.2 °F 52% 30.07 in 10.0 mi West 11.5 mph - N/A   Clear
9:55 AM 39.2 °F 33.0 °F 23.0 °F 52% 30.06 in 10.0 mi West 9.2 mph - N/A   Clear
10:15 AM 39.2 °F 32.5 °F 21.2 °F 49% 30.05 in 10.0 mi West 10.4 mph - N/A   Clear
10:35 AM 39.2 °F 31.6 °F 21.2 °F 49% 30.04 in 10.0 mi WSW 12.7 mph - N/A   Clear
10:55 AM 41.0 °F 33.5 °F 24.8 °F 53% 30.03 in 10.0 mi WSW 13.8 mph 19.6 mph N/A   Clear
11:15 AM 41.0 °F 33.9 °F 23.0 °F 49% 30.03 in 10.0 mi WSW 12.7 mph - N/A   Clear
11:35 AM 42.8 °F 35.1 °F 24.8 °F 49% 30.01 in 10.0 mi SW 16.1 mph - N/A   Clear
11:55 AM 42.8 °F 35.4 °F 24.8 °F 49% 30.00 in 10.0 mi WSW 15.0 mph 19.6 mph N/A   Clear
12:15 PM 44.6 °F 38.8 °F 24.8 °F 46% 29.99 in 10.0 mi WSW 11.5 mph - N/A   Clear
12:35 PM 44.6 °F 38.8 °F 24.8 °F 46% 29.98 in 10.0 mi WSW 11.5 mph 18.4 mph N/A   Partly Cloudy
12:55 PM 44.6 °F 38.1 °F 23.0 °F 43% 29.97 in 10.0 mi WSW 13.8 mph - N/A   Mostly Cloudy
1:15 PM 46.4 °F 41.1 °F 24.8 °F 43% 29.96 in 10.0 mi WSW 11.5 mph 20.7 mph N/A   Overcast
1:35 PM 46.4 °F 39.8 °F 24.8 °F 43% 29.95 in 10.0 mi WSW 16.1 mph 24.2 mph N/A   Overcast
1:55 PM 46.4 °F 41.1 °F 24.8 °F 43% 29.94 in 10.0 mi West 11.5 mph 17.3 mph N/A   Overcast
2:15 PM 46.4 °F 40.7 °F 24.8 °F 43% 29.93 in 10.0 mi WSW 12.7 mph 19.6 mph N/A   Overcast
2:35 PM 48.2 °F - 26.6 °F 43% 29.91 in 10.0 mi SW 12.7 mph 18.4 mph N/A   Overcast
2:55 PM 48.2 °F - 24.8 °F 40% 29.89 in 10.0 mi WSW 11.5 mph 17.3 mph N/A   Mostly Cloudy
3:15 PM 50.0 °F - 24.8 °F 37% 29.89 in 10.0 mi SW 13.8 mph 24.2 mph N/A   Partly Cloudy
3:35 PM 50.0 °F - 26.6 °F 40% 29.88 in 10.0 mi SW 19.6 mph 24.2 mph N/A   Clear
3:55 PM 51.8 °F - 24.8 °F 35% 29.87 in 10.0 mi SW 17.3 mph 21.9 mph N/A   Clear
4:15 PM 51.8 °F - 23.0 °F 33% 29.87 in 10.0 mi SW 16.1 mph 23.0 mph N/A   Clear
4:35 PM 51.8 °F - 21.2 °F 30% 29.86 in 10.0 mi SW 15.0 mph - N/A   Clear
4:55 PM 51.8 °F - 21.2 °F 30% 29.84 in 10.0 mi SW 15.0 mph 20.7 mph N/A   Clear
5:15 PM 50.0 °F - 21.2 °F 32% 29.84 in 10.0 mi SW 16.1 mph - N/A   Clear
5:35 PM 50.0 °F - 23.0 °F 35% 29.83 in 10.0 mi SW 16.1 mph 20.7 mph N/A   Clear
5:55 PM 48.2 °F - 24.8 °F 40% 29.83 in 10.0 mi SW 15.0 mph 20.7 mph N/A   Clear
6:15 PM 48.2 °F - 24.8 °F 40% 29.82 in 10.0 mi SW 13.8 mph 21.9 mph N/A   Clear
6:35 PM 46.4 °F 41.5 °F 26.6 °F 46% 29.82 in 10.0 mi SW 10.4 mph - N/A   Clear
6:55 PM 46.4 °F 40.7 °F 26.6 °F 46% 29.81 in 10.0 mi SW 12.7 mph - N/A   Clear
7:15 PM 46.4 °F 41.5 °F 24.8 °F 43% 29.81 in 10.0 mi SSW 10.4 mph - N/A   Clear
7:35 PM 46.4 °F 40.7 °F 24.8 °F 43% 29.81 in 10.0 mi SSW 12.7 mph - N/A   Clear
7:55 PM 44.6 °F 39.2 °F 26.6 °F 49% 29.81 in 10.0 mi SSW 10.4 mph - N/A   Clear
8:15 PM 42.8 °F 37.0 °F 30.2 °F 61% 29.81 in 10.0 mi South 10.4 mph - N/A   Clear
8:35 PM 42.8 °F 36.6 °F 30.2 °F 61% 29.81 in 10.0 mi South 11.5 mph - N/A   Clear
8:55 PM 42.8 °F 37.0 °F 30.2 °F 61% 29.81 in 10.0 mi South 10.4 mph - N/A   Clear
9:15 PM 42.8 °F 37.0 °F 30.2 °F 61% 29.81 in 10.0 mi SSW 10.4 mph - N/A   Clear
9:35 PM 42.8 °F 37.5 °F 30.2 °F 61% 29.81 in 10.0 mi SSW 9.2 mph - N/A   Clear
9:55 PM 42.8 °F 38.0 °F 30.2 °F 61% 29.81 in 10.0 mi SSW 8.1 mph - N/A   Clear
10:15 PM 42.8 °F 38.6 °F 30.2 °F 61% 29.81 in 10.0 mi SSW 6.9 mph - N/A   Clear
10:35 PM 42.8 °F 37.5 °F 30.2 °F 61% 29.81 in 10.0 mi SW 9.2 mph - N/A   Clear
10:55 PM 42.8 °F 38.6 °F 30.2 °F 61% 29.81 in 10.0 mi SW 6.9 mph - N/A   Partly Cloudy
11:15 PM 42.8 °F 38.6 °F 30.2 °F 61% 29.81 in 10.0 mi WSW 6.9 mph - N/A   Partly Cloudy
11:35 PM 42.8 °F 38.6 °F 30.2 °F 61% 29.81 in 10.0 mi SW 6.9 mph - N/A   Clear
11:55 PM 42.8 °F 39.3 °F 30.2 °F 61% 29.82 in 10.0 mi WSW 5.8 mph - N/A   Clear